Last 6 Hours

Alpine-Roundhouse Btm 6950'

15 Minute Data | America/Los_Angeles
as of 5/30/20 7:49 PM PDT
Date & Time Temp (°F) RH (%) Dew Pt (°F) Wet Bulb (°F) Wind Dir (°) Wind Spd (mph) Wind Gust (mph) WindChill (°F) Barometric Pressure (inHg) New Snow (in) SnowDepth (in) Latest Rain (In) Daily Rain (In) Daily Min Temp (°F) Daily Max Temp (°F)
5/30/20 - 1945 43.4 85 39.2 41.2 SE | 124 4.8 12.2 43.4 30.01 0.5 1.0 0.00 0.17 42.3 58.2
5/30/20 - 1930 43.2 84 38.7 40.8 SE | 136 3.6 12.7 43.2 30.02 0.5 0.8 0.00 0.17 42.3 58.2
5/30/20 - 1915 43.4 81 37.8 40.5 SE | 139 4.8 12.8 43.4 30.01 0.5 1.0 0.00 0.17 42.3 58.2
5/30/20 - 1900 43.6 81 38.1 40.7 SE | 126 5.7 20.0 40.2 30.01 0.5 0.9 0.00 0.17 42.3 58.2
5/30/20 - 1845 43.5 81 38.1 40.7 SSE | 149 6.3 15.2 43.5 30.00 0.5 1.0 0.00 0.17 42.3 58.2
5/30/20 - 1830 44.0 76 37.0 40.4 SE | 127 4.7 10.6 41.7 30.01 0.5 1.3 0.00 0.17 42.3 58.2
5/30/20 - 1815 43.7 80 37.9 40.6 SE | 140 5.9 17.3 41.5 30.00 0.5 1.1 0.00 0.17 42.3 58.2
5/30/20 - 1800 43.9 81 38.6 41.1 SE | 142 6.5 17.7 39.1 29.99 0.5 1.3 0.00 0.17 42.3 58.2
5/30/20 - 1745 43.9 80 38.0 40.8 SE | 127 3.5 8.9 43.9 30.00 0.5 1.3 0.00 0.17 42.3 58.2
5/30/20 - 1730 44.0 85 39.9 41.9 E | 98 3.4 11.0 39.8 30.01 0.5 1.3 0.00 0.17 42.3 58.2
5/30/20 - 1715 43.4 87 39.6 41.4 SE | 140 3.8 11.2 41.5 30.01 0.5 1.3 0.00 0.17 42.3 58.2
5/30/20 - 1700 43.0 86 39.0 40.9 SE | 129 3.7 12.2 43.0 30.01 0.5 1.3 0.00 0.17 42.3 58.2
5/30/20 - 1645 43.1 88 39.7 41.2 SE | 136 6.0 14.6 38.2 30.02 0.5 1.3 0.01 0.17 42.3 58.2
5/30/20 - 1630 43.5 88 40.1 41.7 SE | 124 4.8 12.8 40.9 30.03 0.5 1.3 0.00 0.16 42.3 58.2
5/30/20 - 1615 43.3 87 39.7 41.4 ESE | 123 2.7 9.4 43.3 30.03 0.5 1.5 0.00 0.16 42.3 58.2
5/30/20 - 1600 43.0 92 40.8 41.8 S | 174 3.7 9.1 43.0 30.03 0.5 1.5 0.00 0.16 42.3 58.2
5/30/20 - 1545 43.2 88 39.8 41.4 SSE | 154 4.5 10.9 39.8 30.03 0.5 1.4 0.04 0.16 42.3 58.2
5/30/20 - 1530 45.0 84 40.6 42.6 SSE | 157 3.7 8.4 43.4 30.03 0.5 1.5 0.00 0.12 42.3 58.2
5/30/20 - 1515 45.9 83 41.0 43.2 SSE | 150 3.7 11.0 43.4 30.02 0.5 1.4 0.00 0.12 42.3 58.2
5/30/20 - 1500 45.1 82 39.8 42.2 SE | 138 3.3 8.9 42.8 30.03 0.5 1.5 0.00 0.12 42.3 58.2
5/30/20 - 1445 43.9 86 40.0 41.8 SSE | 157 4.2 10.9 40.8 30.02 0.5 1.5 0.02 0.12 42.3 58.2
5/30/20 - 1430 45.4 81 40.0 42.5 ESE | 116 3.3 10.3 45.4 30.02 0.5 1.0 0.01 0.10 42.3 58.2
5/30/20 - 1415 45.4 85 41.1 43.0 SE | 132 1.7 7.0 42.3 30.01 0.5 1.1 0.01 0.09 42.3 58.2
5/30/20 - 1400 45.4 83 40.4 42.7 SE | 139 2.1 6.9 45.4 30.02 0.5 1.3 0.00 0.08 42.3 58.2
Max 45.9 92 41.1 43.2 - 6.5 20.0 45.4 30.03 0.5 1.5 0.04 0.17 42.3 58.2
Avg 44.0 84 39.4 41.5 - 4.2 11.8 42.2 30.02 0.5 1.2 0.00 - - -
Min 43.0 76 37.0 40.4 - 1.7 6.9 38.2 29.99 0.5 0.8 0.00 0.08 42.3 58.2
Total - - - - - - - - - - - 0.09 - - -